Location: Shenandoah County Park
(38.9356°N, 78.4524°W)
Time: 14:21:22
(UTC-04:00)

Envisat - Pass Details

Date: 04 June 2024
Orbit: 762 x 764 km, 98.3° (Epoch: 14 June)

Event Time Altitude Azimuth Distance (km) Brightness Sun altitude
Rises 03:22:22 0° 30° (NNE) 3,231 7.8 -21.4°
Reaches altitude 10° 03:25:23 10° 49° (NE) 2,300 6.5 -21.1°
Maximum altitude 03:28:52 19° 93° (E) 1,776 5.2 -20.7°
Drops below altitude 10° 03:32:21 10° 137° (SE) 2,289 5.3 -20.4°
Enters shadow 03:33:37 - 146° (SE) 2,657 5.6 -20.2°
